PDT,Max TemperatureF,Mean TemperatureF,Min TemperatureF,Max Dew PointF,MeanDew PointF,Min DewpointF,Max Humidity, Mean Humidity, Min Humidity, Max Sea Level PressureIn, Mean Sea Level PressureIn, Min Sea Level PressureIn, Max VisibilityMiles, Mean VisibilityMiles, Min VisibilityMiles, Max Wind SpeedMPH, Mean Wind SpeedMPH, Max Gust SpeedMPH,PrecipitationIn, CloudCover, Events, WindDirDegrees
2013-7-1,114,101,87,67,55,43,50,30,9,29.79,29.71,29.65,10,10,10,18,7,26,T,1,,335
2013-7-2,107,99,91,70,55,42,42,30,18,29.91,29.76,29.69,10,10,10,14,5,23,0.00,1,,107
2013-7-3,113,99,84,58,49,41,37,24,10,29.75,29.66,29.57,10,10,9,12,5,23,0.00,1,,307
2013-7-4,110,96,81,65,53,46,44,30,15,29.72,29.62,29.54,10,10,10,16,6,32,0.00,1,,124
2013-7-5,103,90,77,69,57,47,65,43,21,29.73,29.66,29.60,10,10,10,16,5,20,0.00,1,,89
2013-7-6,109,95,80,59,54,48,46,31,16,29.70,29.64,29.57,10,10,10,13,5,23,0.00,1,,8
2013-7-7,113,97,81,57,45,27,40,24,7,29.70,29.65,29.58,10,10,10,13,4,27,0.00,1,,325
2013-7-8,114,98,81,57,41,27,45,25,5,29.80,29.74,29.69,10,10,10,15,4,29,0.00,1,,257
2013-7-9,106,96,86,74,62,38,65,39,13,29.98,29.86,29.78,10,10,10,17,6,21,0.00,2,,91
2013-7-10,98,90,82,75,69,54,70,56,42,29.93,29.85,29.76,10,10,10,17,7,21,0.00,2,,86
2013-7-11,94,89,83,68,60,53,59,46,32,29.92,29.83,29.78,10,10,10,14,5,17,T,4,Rain,326
2013-7-12,105,94,82,62,58,55,51,36,20,29.83,29.77,29.68,10,10,10,10,3,14,0.00,3,,263
2013-7-13,109,95,80,59,53,48,49,33,16,29.84,29.77,29.68,10,10,10,13,4,22,0.00,2,,314
2013-7-14,110,98,86,56,51,46,34,24,14,29.81,29.73,29.65,10,10,10,13,4,21,0.00,1,,310
2013-7-15,112,98,83,57,45,32,43,26,9,29.72,29.67,29.60,10,10,10,29,6,37,0.00,2,,317
2013-7-16,104,93,82,48,37,24,29,18,6,29.82,29.74,29.68,10,9,5,20,4,23,0.00,5,,315
2013-7-17,100,87,74,46,35,19,33,20,6,29.92,29.85,29.80,10,9,6,6,1,7,0.00,3,,232
2013-7-18,111,92,72,50,37,21,41,23,5,29.84,29.77,29.68,10,10,9,16,3,20,0.00,1,,313
2013-7-19,101,92,82,73,62,47,59,42,24,29.85,29.76,29.67,10,10,10,14,4,18,0.00,2,,92
2013-7-20,97,90,83,75,71,57,74,55,36,29.84,29.76,29.67,10,10,10,17,6,21,T,4,Rain,97
2013-7-21,90,83,76,75,71,64,85,67,48,29.86,29.81,29.74,10,8,1,26,7,33,0.83,5,Rain,280
2013-7-22,95,87,78,70,66,63,67,54,41,29.91,29.86,29.80,10,10,9,10,5,25,0.00,2,,287
2013-7-23,106,93,80,65,61,56,58,40,21,29.91,29.84,29.74,10,10,10,21,5,25,0.00,1,,323
2013-7-24,111,97,83,62,58,49,51,34,17,29.84,29.78,29.68,10,10,10,22,4,26,0.00,1,,311
2013-7-25,103,93,83,67,61,56,48,36,24,29.92,29.84,29.77,10,10,10,17,4,21,0.00,1,,120
2013-7-26,98,91,83,72,63,56,65,48,30,30.01,29.93,29.86,10,9,2,12,4,13,0.11,4,Rain,328
2013-7-27,109,96,83,64,58,51,55,36,17,29.90,29.81,29.69,10,10,10,21,4,24,0.00,2,,314
2013-7-28,108,95,82,56,43,32,34,21,8,29.75,29.71,29.66,10,10,10,28,8,32,0.00,0,,315
2013-7-29,106,91,75,53,41,24,35,21,7,29.88,29.81,29.73,10,10,10,21,4,26,0.00,0,,305
2013-7-30,105,91,77,56,52,48,47,32,16,29.99,29.93,29.86,10,10,10,16,3,22,0.00,0,,318
2013-7-31,107,93,78,56,51,41,45,28,11,29.95,29.88,29.79,10,10,10,20,4,23,0.00,1,,315